Hauptseite
METAR-TAF:

METAR-TAF

Flughäfen :

Laval, Frankreich

Flugplatz Laval-Entrammes

Breite: 48-01-56N, Länge: 000-44-34W, Höhe: 101 m

Beobachtung

Neuester Wetterbericht von vor 15 Minuten, um 06:30 UTC
Wind 2 kt aus Süd
Temperatur 14°C
Luftfeuchtigkeit 88%
Luftdruck 1013 hPa
Sichtweite 10 km oder mehr
keine Wolken unter 1500 m und keine Kumulonimbus oder Gewitterwolken

METAR: LFOV 220630Z AUTO 18002KT CAVOK 14/12 Q1013

Zeit: 08:45 (06:45 UTC)


TAF: fehlend

Wetterbeobachtungen und Prognosen von mehr als 4000 Flughäfen (METAR und TAF Bericht).

Die verfügbaren Stationen werden durch gelbe und rote Markierungen auf der Karte dargestellt.

Führen Sie die Maus auf sie, um den Namen der Station zu sehen.

Darauf klicken, um die Beobachtung von Wetterbeobachtungen und Prognosen zu sehen.

Um die Karte zu ändern : klicken Sie auf den grünen Tasten mit einem schwarzen Kreuz Zum Vergrößern, auf den grünen Button mit einem Gedankenstrich zu verkleinern, oder auf die grünen Pfeile für benachbarte Karten.


METAR-TAF: